This is the latest recevied weather packets stored in our database for station/object KY0TEQ-13. If no packets are shown the sender has not sent any weather packets the latest 10 day(s).
| Time | Temp. | Humidity | Pressure | Rain* | Wind** | Luminosity | Snow |
|---|---|---|---|---|---|---|---|
| 1777772106 | 15° C | 20% | 1305.1 hPa | 0 mm | - | 15 W/m² | - |
| 1777771804 | 15° C | 18% | 1305 hPa | 0 mm | - | 19 W/m² | - |
| 1777771501 | 15.56° C | 18% | 1305 hPa | 0 mm | - | 23 W/m² | - |
| 1777771196 | 16.11° C | 18% | 1305 hPa | 0 mm | - | 26 W/m² | - |
| 1777770894 | 16.11° C | 15% | 1305 hPa | 0 mm | - | 35 W/m² | - |
| 1777770591 | 16.11° C | 15% | 1305 hPa | 0 mm | - | 43 W/m² | - |
| 1777770287 | 16.11° C | 16% | 1305 hPa | 0 mm | - | 50 W/m² | - |
| 1777769985 | 16.67° C | 16% | 1305 hPa | 0 mm | - | 58 W/m² | - |
| 1777769682 | 16.67° C | 15% | 1304.9 hPa | 0 mm | - | 67 W/m² | - |
| 1777769379 | 16.67° C | 15% | 1305 hPa | 0 mm | - | 77 W/m² | - |
| 1777769075 | 16.67° C | 16% | 1305.1 hPa | 0 mm | - | 89 W/m² | - |
| 1777768773 | 16.67° C | 15% | 1305 hPa | 0 mm | - | 101 W/m² | - |
| 1777768470 | 17.22° C | 15% | 1305.1 hPa | 0 mm | - | 113 W/m² | - |
| 1777768167 | 17.78° C | 14% | 1305.1 hPa | 0 mm | - | 127 W/m² | - |
| 1777767864 | 17.22° C | 15% | 1305.2 hPa | 0 mm | - | 143 W/m² | - |
| 1777767560 | 17.22° C | 14% | 1305.4 hPa | 0 mm | - | 156 W/m² | - |
| 1777767256 | 17.22° C | 15% | 1305.2 hPa | 0 mm | - | 170 W/m² | - |
| 1777766954 | 17.22° C | 15% | 1305.2 hPa | 0 mm | - | 187 W/m² | - |
| 1777766651 | 17.22° C | 14% | 1305.2 hPa | 0 mm | - | 201 W/m² | - |
| 1777766348 | 17.22° C | 14% | 1305.5 hPa | 0 mm | - | 218 W/m² | - |
| 1777766045 | 17.78° C | 14% | 1305.2 hPa | 0 mm | - | 235 W/m² | - |
| 1777765742 | 17.22° C | 15% | 1305.4 hPa | 0 mm | - | 251 W/m² | - |
| 1777765439 | 17.22° C | 15% | 1305.4 hPa | 0 mm | - | 267 W/m² | - |
| 1777765136 | 17.78° C | 15% | 1305.4 hPa | 0 mm | - | 284 W/m² | - |
| 1777764831 | 17.78° C | 15% | 1305.5 hPa | 0 mm | - | 302 W/m² | - |
* Rain latest hour (hover to see other rain measurements)
** Current wind speed in m/s (hover to see current wind gust speed)